Terminal Aerodrome Forecast
Issued by NWS Jackson, MS

Home | Current Version | Previous Version | Text Only | Print | Product List | Glossary On
Versions: 1 2 3 4 5 6 7 8 9 10 11 12 13 14 15 16
000
FTUS44 KJAN 010400 AAA
TAFGWO
TAF AMD
KGWO 010409Z 0104/0124 00000KT 4SM BR SCT070 BKN090
     FM011000 05003KT 4SM BR VCSH SCT007 OVC050
     FM011500 03004KT P6SM BKN050=

USA.gov is the U.S. government's official web portal to all federal, state and local government web resources and services.